Current weather by "City, St" or "zip code"  
 

Current Conditions: West Memphis, West Memphis Municipal Airport, AR

Fair


42.0 F

Last Updated on Oct 31 2020, 1:53 am CDT
Humidity: 96%
Wind Speed: N 0.0 mph
Barometer 30.28 in
Dewpoint: 41.0 F
Visibility: 10.00 mi
Precip: --
Heat Index: NA
Wind Chill: NA
Current conditions at:

West Memphis, West Memphis Municipal Airport, AR (KAWM)

Lat: 35.13333 Lon: 90.23333

Local Radar Image active severe weather and emergency alerts image image weather storm and storm spotter reports image weather observation monitoring service image
Local
Radar
Active
Alerts
Storm Reports Obs
Monitoring

Sign-up For Email & Text Message Weather Alert Notification Services



Advertise Here

Observation History for West Memphis, West Memphis Municipal Airport, AR


Time Wind
(mph)
Vis
(mi)
Weather Precip (in) Temperature (F) Relative
Humidity
Wind
Chill
(F)
Heat
Index
(F)
Pressure
Air Dwpt altimeter
(in)
sea level
(mb)
Rmks
1:53 am CDT N 0.0 10.00 Fair -- 42.0 41.0 96% NA NA 30.28 1025.4
12:53 am CDT N 0.0 10.00 Fair -- 44.0 42.1 93% NA NA 30.28 1025.4
11:53 pm CDT N 0.0 10.00 Fair -- 44.0 42.1 93% NA NA 30.28 1025.4
10:53 pm CDT N 0.0 10.00 Fair -- 45.0 42.1 90% NA NA 30.28 1025.4
9:53 pm CDT N 0.0 10.00 Fair -- 46.0 42.1 86% NA NA 30.28 1025.4
8:53 pm CDT N 3.5 10.00 Fair -- 48.0 42.1 80% NA NA 30.27 1025.3
7:53 pm CDT N 0.0 10.00 Fair -- 49.0 42.1 77% NA NA 30.26 1024.7
6:53 pm CDT N 3.5 10.00 Fair -- 51.0 41.0 69% NA NA 30.26 1024.8
5:53 pm CDT N 4.6 10.00 Fair -- 54.0 41.0 62% 53 NA 30.25 1024.4
4:53 pm CDT N 5.8 10.00 Fair -- 58.0 41.0 53% 57 NA 30.25 1024.4
3:53 pm CDT N 6.9 10.00 Fair -- 58.0 39.9 51% 57 NA 30.26 1024.7
2:53 pm CDT N 9.2 10.00 Fair -- 58.0 39.9 51% 56 NA 30.27 1025.0
1:53 pm CDT N 6.9 10.00 Fair -- 57.0 39.0 51% 56 NA 30.29 1025.6
12:53 pm CDT N 10.4 10.00 Fair -- 55.0 39.0 55% 52 NA 30.31 1026.4
11:53 am CDT NE 10.4 10.00 Fair -- 54.0 41.0 62% 51 NA 30.33 1026.9
10:53 am CDT NE 9.2 10.00 Fair -- 50.0 41.0 71% 46 NA 30.33 1027.2
9:53 am CDT NE 10.4 10.00 Fair -- 47.0 39.9 77% 42 NA 30.33 1027.1
8:53 am CDT N 6.9 10.00 Fair -- 43.0 37.9 82% 39 NA 30.32 1026.8
7:53 am CDT N 3.5 10.00 Fair -- 40.0 37.0 89% NA NA 30.30 1026.1
6:53 am CDT NW 3.5 10.00 Fair -- 39.0 37.0 93% NA NA 30.28 1025.4
5:53 am CDT N 3.5 10.00 Fair -- 40.0 37.9 93% NA NA 30.24 1024.1
4:53 am CDT 3.5 10.00 Fair -- 41.0 39.0 93% NA NA 30.23 1023.6
3:53 am CDT N 0.0 10.00 Fair -- 42.0 39.0 89% NA NA 30.20 1022.6
2:53 am CDT N 4.6 10.00 Fair -- 44.0 39.9 85% 41 NA 30.18 1022.1

Regional Weather Observation


Jonesboro, Jonesboro Municipal Airport, AR (KJBR)

Fair
42.0 F

Memphis International Airport, TN (KMEM)

Fair
45.0 F

Millington, Millington Municipal Airport, TN (KNQA)

Fair
43.0 F

Eaker Air Force Base, AR (KBYH)

Clear
63.0 F

Tunica, Tunica Municipal Airport, MS (KUTA)

Fair
41.0 F

Blytheville, Blytheville Municipal Airport, AR (KHKA)

Fair
43.0 F